Driggs, ID

3:07 PM MDT on May 29, 2017 (GMT -0600)
Driggs

Weather History for KDIJ - November, 2013

Change the Weather History Date:

Thursday, November 7, 2013

  Actual Average (KJAC) Record (KJAC)
Temperature  
Mean Temperature 36 °F -  
Max Temperature 41 °F 43 °F 60 °F (2012)
Min Temperature 32 °F 19 °F -10 °F (1990)
Degree Days  
Heating Degree Days 28    
Moisture  
Dew Point 32 °F    
Average Humidity 84    
Maximum Humidity 100    
Minimum Humidity 66    
Precipitation  
Precipitation 0.10 in - - ()
Sea Level Pressure  
Sea Level Pressure 30.20 in    
Wind  
Wind Speed 8 mph (SSE)    
Max Wind Speed 14 mph    
Max Gust Speed -    
Visibility 8 miles    
Events Rain , Snow    
Averages and records for this station are not official NWS values.
T = Trace of Precipitation, MM = Missing Value Source: NWS Daily Summary

Daily Weather History Graph

Daily Weather History Graph

Search for Another Location

Airport or City:

Trip Planner

Search our weather history database for the weather conditions in past years. The results will help you decide how hot, cold, wet, or windy it might be!

Date:

Astronomy

Nov. 07, 2013 Rise Set
Actual Time 7:08 AM MST 5:06 PM MST
Civil Twilight 6:38 AM MST 5:37 PM MST
Nautical Twilight 6:03 AM MST 6:11 PM MST
Astronomical Twilight 5:30 AM MST 6:45 PM MST
Moon 11:21 AM MST (11/7) 9:21 PM MST (11/7)
Length of Visible Light 10h 59m
Length of Day
9h 58m
Waxing Crescent, 23% of the Moon is Illuminated
Nov 7
Waxing Crescent
Nov 9
First Quarter
Nov 17
Full
Nov 25
Last Quarter
Dec 2
New

Hourly Weather History & Observations

Time (MST) Temp. Windchill Dew Point Humidity Pressure Visibility Wind Dir Wind Speed Gust Speed Precip Events Conditions
12:56 AM 34.9 °F 27.7 °F 28.0 °F 76% 30.35 in 10.0 mi SSE 9.2 mph - 0.01 in   Overcast
1:56 AM 34.9 °F 27.7 °F 28.0 °F 76% 30.35 in 10.0 mi SSE 9.2 mph - N/A   Overcast
2:56 AM 36.0 °F 29.0 °F 29.1 °F 76% 30.35 in 10.0 mi SSE 9.2 mph - N/A   Overcast
3:56 AM 34.9 °F 27.7 °F 30.0 °F 82% 30.35 in 10.0 mi SSE 9.2 mph - N/A   Overcast
4:22 AM 35.6 °F 28.6 °F 30.2 °F 81% 30.37 in 10.0 mi South 9.2 mph - N/A   Overcast
4:30 AM 35.6 °F 28.6 °F 30.2 °F 81% 30.37 in 10.0 mi South 9.2 mph - N/A   Overcast
4:56 AM 34.0 °F 27.2 °F 31.1 °F 89% 30.35 in 8.0 mi South 8.1 mph - 0.01 in   Overcast
5:32 AM 33.8 °F 28.6 °F 32.0 °F 93% 30.36 in 5.0 mi South 5.8 mph - 0.00 in Snow Light Snow
5:39 AM 33.8 °F 28.6 °F 32.0 °F 93% 30.36 in 5.0 mi SSE 5.8 mph - 0.00 in Snow Light Snow
5:56 AM 32.9 °F 28.5 °F 32.0 °F 96% 30.34 in 6.0 mi SSE 4.6 mph - 0.00 in Snow Light Snow
6:56 AM 32.9 °F 27.5 °F 32.0 °F 96% 30.33 in 8.0 mi SSE 5.8 mph - 0.01 in Snow Light Snow
7:35 AM 33.8 °F 29.6 °F 32.0 °F 93% 30.33 in 5.0 mi ESE 4.6 mph - 0.01 in Snow Light Snow
7:48 AM 33.8 °F 29.6 °F 32.0 °F 93% 30.33 in 4.0 mi ESE 4.6 mph - 0.01 in Snow Light Snow
7:56 AM 32.9 °F 28.5 °F 32.0 °F 96% 30.31 in 3.0 mi ESE 4.6 mph - 0.01 in Snow Light Snow
8:56 AM 32.9 °F 25.9 °F 32.9 °F 100% 30.30 in 6.0 mi SSE 8.1 mph - 0.01 in   Overcast
9:56 AM 34.9 °F 32.0 °F 34.0 °F 97% 30.29 in 6.0 mi Variable 3.5 mph - 0.02 in   Overcast
10:08 AM 35.6 °F 30.7 °F 35.6 °F 100% 30.32 in 6.0 mi South 5.8 mph - 0.01 in   Overcast
10:29 AM 35.6 °F 29.2 °F 35.6 °F 100% 30.31 in 7.0 mi South 8.1 mph - 0.02 in   Mostly Cloudy
10:56 AM 34.9 °F 29.0 °F 34.9 °F 100% 30.27 in 10.0 mi ESE 6.9 mph - 0.02 in   Mostly Cloudy
11:56 AM 36.9 °F 30.1 °F 34.9 °F 93% 30.24 in 10.0 mi South 9.2 mph - 0.01 in   Mostly Cloudy
12:56 PM 37.9 °F 34.4 °F 34.9 °F 89% 30.18 in 10.0 mi South 4.6 mph - 0.00 in   Overcast
1:56 PM 39.9 °F 37.8 °F 32.9 °F 76% 30.13 in 10.0 mi Variable 3.5 mph - N/A   Overcast
2:56 PM 38.8 °F 35.4 °F 34.0 °F 83% 30.09 in 10.0 mi East 4.6 mph - N/A   Overcast
3:56 PM 41.0 °F 34.7 °F 32.0 °F 70% 30.06 in 10.0 mi SSW 10.4 mph - N/A   Partly Cloudy
4:56 PM 38.8 °F 31.2 °F 32.9 °F 79% 30.04 in 8.0 mi South 12.7 mph - N/A   Mostly Cloudy
5:56 PM 39.9 °F 32.9 °F 32.0 °F 73% 29.98 in 10.0 mi South 11.5 mph - N/A   Mostly Cloudy
6:56 PM 39.9 °F 32.5 °F 32.0 °F 73% 29.95 in 10.0 mi SSW 12.7 mph - N/A   Mostly Cloudy
7:56 PM 41.9 °F 34.6 °F 32.0 °F 68% 29.93 in 10.0 mi South 13.8 mph - N/A   Overcast
8:56 PM 41.0 °F 35.8 °F 31.1 °F 68% 29.91 in 10.0 mi South 8.1 mph - N/A   Mostly Cloudy
9:56 PM 41.9 °F 35.0 °F 31.1 °F 66% 29.88 in 10.0 mi South 12.7 mph - N/A   Overcast
10:56 PM 41.0 °F 34.3 °F 32.0 °F 70% 29.86 in 10.0 mi South 11.5 mph - 0.00 in Rain Light Rain
11:56 PM 41.0 °F 33.5 °F 31.1 °F 68% 29.82 in 10.0 mi South 13.8 mph - 0.00 in Rain Light Rain